Location: Banff
(51.1667°N, 115.5667°W)
Time: 07:19:54
(UTC+00:00)

Vanguard 1 - Pass Details

Date: 02 December 2020
Orbit: 648 x 3834 km, 34.3° (Epoch: 22 January)

Event Time Altitude Azimuth Distance (km) Brightness Sun altitude
Exits shadow 13:53:58 - 237° (WSW) 3,372 12.5 -13.7°
Reaches altitude 10° 13:56:02 10° 225° (SW) 2,863 12.2 -13.4°
Maximum altitude 14:01:34 25° 173° (S) 2,539 12.5 -12.6°
Drops below altitude 10° 14:10:00 10° 125° (SE) 4,510 14.9 -11.3°
Sets 14:15:30 0° 114° (ESE) 6,125 16.4 -10.5°
